STARLINK-11529 [DTC] (62599 NORAD) Tracking and Keplerian Element Data

This shows tracking and keplerian element data for the satellite.

Feedback or suggestion? Click here.




ElementValue
Catalog62599
NameSTARLINK-11529 [DTC]
Epoch Orbit441
Epoch Day34.00100842
Epoch Year2025
RAAN17.1539
Inclination43.006
Eccentricity5.85E-05
Argument of Perigee312.1753
Mean Anonmoly47.907
Mean Motion15.84400092
Decay Rate0.00011756
L11 62599U 25008N 25034.00100842 .00011756 00000+0 52150-4 0 9991
L22 62599 43.0060 17.1539 0000585 312.1753 47.9070 15.84400092 4411



Live tracking and technical data element details for STARLINK-11529 [DTC] (NORAD 62599). STARLINK-11529 [DTC] can be tracked NOW for your location showing map with azimuth and elevation plus other details from your city location.







IsCatalogInMostPopularTable: catalog: 62599, numindb: 4
Update: records affected: 1



GetName: 62599 STARLINK-11529 [DTC]

Hit Count: updated at: Sun, 09 Feb 2025 14:29:12 GMT